This demonstration page uses our WeatherBlox Daily Observations layout. Learn more.

Left ArrowRight Arrow

Hourly Observations for June 1, 2017

Temp ( °F °C ) Dew Point ( °F °C ) Humidity (%) Winds ( mph kmh ) Pressure ( in mb ) Visibility ( mi km ) Precip ( " mm )
12:56 am 00:56 Clear 69 20.3 50 9.8 51 51 Calm 30.07 1018 10 16 0.00 0.00
1:56 am 01:56 Clear 65 18.4 48 9 54 54 Calm 30.07 1018 10 16 0.00 0.00
2:56 am 02:56 Clear 63 17.4 46 7.7 53 53 Calm 30.06 1018 10 16 0.00 0.00
3:56 am 03:56 Clear 60 15.6 49 9.2 66 66 Calm 30.07 1018 10 16 0.00 0.00
4:56 am 04:56 Clear 51 10.5 48 8.9 90 90 Calm 30.07 1018 10 16 0.00 0.00
5:56 am 05:56 Partly Cloudy 51 10.7 48 8.8 88 88 Calm 30.07 1018 10 16 0.00 0.00
6:56 am 06:56 Partly Cloudy 57 13.9 49 9.5 75 75 NE 3 6 30.10 1019 10 16 0.00 0.00
7:56 am 07:56 Sunny 62 16.6 49 9.5 63 63 SE 5 7 30.06 1018 10 16 0.00 0.00
8:56 am 08:56 Sunny 67 19.2 53 11.5 61 61 SSE 8 13 N/A 2 3 0.00 0.00
9:56 am 09:56 Sunny 71 21.5 56 13.6 61 61 SSE 7 11 30.06 1018 10 16 0.00 0.00
10:56 am 10:56 Sunny 74 23.5 60 15.3 60 60 SSE 7 11 30.06 1018 2 3 0.00 0.00
11:56 am 11:56 Sunny 76 24.6 60 15.8 58 58 SE 5 7 30.04 1017 10 16 0.00 0.00
12:56 pm 12:56 Mostly Sunny 78 25.3 60 15.3 54 54 SE 6 9 29.97 1015 10 16 0.00 0.00
1:56 pm 13:56 Sunny 80 26.7 61 16 52 52 SE 9 15 29.97 1015 10 16 0.00 0.00
2:56 pm 14:56 Sunny 80 26.9 61 15.9 51 51 S 8 13 29.94 1014 10 16 0.00 0.00
3:56 pm 15:56 Mostly Sunny 82 27.5 60 15.8 49 49 ESE 9 15 29.91 1013 10 16 0.00 0.00
4:56 pm 16:56 Sunny 83 28.3 61 15.9 47 47 SE 9 15 29.96 1015 10 16 0.00 0.00
5:26 pm 17:26 Sunny 81 27 59 15 48 48 S 13 20 29.96 1015 10 16 0.00 0.00
5:56 pm 17:56 Sunny 83 28.1 59 15 45 45 SE 12 19 29.95 1014 10 16 0.00 0.00
6:56 pm 18:56 Partly Cloudy 72 22.3 51 10.4 47 47 Calm 30.04 1017 10 16 0.00 0.00
7:56 pm 19:56 Sunny 78 25.8 59 15.2 52 52 SSE 10 17 29.94 1014 10 16 0.00 0.00
8:56 pm 20:56 Clear 75 23.7 61 16.2 63 63 SSE 7 11 29.95 1014 10 16 0.00 0.00
9:56 pm 21:56 Clear 73 22.7 61 16 66 66 S 9 15 29.96 1015 10 16 0.00 0.00
10:56 pm 22:56 Clear 69 20.4 61 16 76 76 SE 9 15 29.97 1015 10 16 0.00 0.00
11:56 pm 23:56 Clear 68 19.9 60 15.3 75 75 SE 7 11 29.97 1015 10 16 0.00 0.00

Powered by AerisWeather